Regional Weather Roundup
Issued by NWS

Home | Current Version | Previous Version | Text Only | Print | Product List | Glossary Off
Versions: 1 2 3 4 5 6 7 8 9 10 11 12 13 14 15 16 17 18 19 20 21 22 23 24 25 26 27 28 29 30 31 32 33 34 35 36 37 38 39 40 41 42 43 44 45 46 47 48 49 50

000
ASUS43 KBIS 301110
RWRND

NORTH DAKOTA REGIONAL WEATHER ROUNDUP
NATIONAL WEATHER SERVICE BISMARCK ND
600 AM CDT SAT JUL 30 2016

NOTE: "FAIR" INDICATES FEW OR NO CLOUDS BELOW 12,000 FEET WITH NO
SIGNIFICANT WEATHER AND/OR OBSTRUCTIONS TO VISIBILITY.


NDZ001>003-009>011-017-301200-
NORTHWEST NORTH DAKOTA

CITY           SKY/WX    TMP DP  RH WIND       PRES   REMARKS
WILLISTON      CLEAR     56  53  90 CALM      29.89F
MINOT          CLEAR     64  60  87 S6        29.89F
MINOT AFB      CLEAR     56  55  97 SW5       29.88F
$$

NDZ018>021-031>035-040>046-301200-
SOUTHWEST NORTH DAKOTA

CITY           SKY/WX    TMP DP  RH WIND       PRES   REMARKS
BISMARCK       TSTM      64  63  96 NE13      29.93F
DICKINSON      FOG       53  53 100 CALM      29.91S VSB 1/2
GARRISON         N/A     61  61 100 E5        29.90F
HETTINGER ARPT CLEAR     55  54  96 CALM      29.94F
$$

NDZ004>008-012>016-024-026-027-054-301200-
NORTHEAST NORTH DAKOTA

CITY           SKY/WX    TMP DP  RH WIND       PRES   REMARKS
GRAND FORKS    CLOUDY    65  61  87 SE6       29.94F
GRND FRKS AFB  CLOUDY    63  62  94 SE8       29.95S
DEVILS LAKE    MOCLDY    66  62  87 S9        29.94S
$$

NDZ022-023-025-028>030-036>039-047>053-301200-
SOUTHEAST NORTH DAKOTA

CITY           SKY/WX    TMP DP  RH WIND       PRES   REMARKS
FARGO          PTCLDY    66  60  81 S8        29.97S
JAMESTOWN      PTCLDY    63  59  87 S9        29.94F
$$





USA.gov is the U.S. government's official web portal to all federal, state and local government web resources and services.